Location: R�serve Fauniques des Laurentides
(47.3100°N, 71.1900°W)
Time: 12:43:41
(UTC-04:00)

Cosmos 1674 - Visible Passes

Search period start: 25 August 2016 00:00
Search period end: 04 September 2016 00:00
Orbit: 499 x 526 km, 82.5° (Epoch: 24 August)

Date Brightness Start Highest point End Pass type
(mag) Time Alt. Az. Time Alt. Az. Time Alt. Az.
25 Aug 5.4 00:11:42 10° N 00:12:46 17° NNE 00:12:46 17° NNE visible
25 Aug 5.4 23:55:54 10° N 23:56:51 16° NNE 23:56:51 16° NNE visible
26 Aug 5.5 23:40:07 10° NNE 23:40:56 15° NNE 23:40:56 15° NNE visible
27 Aug 5.8 01:15:50 10° NW 01:15:53 10° NW 01:15:53 10° NW visible
27 Aug 5.5 23:24:22 10° NNE 23:25:02 13° NNE 23:25:02 13° NNE visible
28 Aug 5.8 00:59:44 10° NNW 00:59:58 11° NNW 00:59:58 11° NNW visible
28 Aug 5.5 23:08:41 10° NNE 23:09:08 12° NNE 23:09:08 12° NNE visible
29 Aug 5.8 00:43:41 10° NNW 00:44:04 12° NNW 00:44:04 12° NNW visible
29 Aug 5.6 22:53:05 10° NNE 22:53:14 11° NNE 22:53:14 11° NNE visible
30 Aug 5.8 00:27:40 10° NNW 00:28:11 13° NNW 00:28:11 13° NNW visible
31 Aug 5.7 00:11:40 10° NNW 00:12:18 14° NNW 00:12:18 14° NNW visible
31 Aug 5.7 23:55:43 10° NNW 23:56:25 15° NNW 23:56:25 15° NNW visible
01 Sep 5.6 23:39:45 10° N 23:40:33 16° N 23:40:33 16° N visible
02 Sep 5.5 23:23:50 10° N 23:24:41 16° N 23:24:41 16° N visible
03 Sep 5.4 23:07:56 10° N 23:08:50 16° N 23:08:50 16° N visible
